{"data":{"norad_id":66068,"intl_designator":"2025-235L","name":"STARLINK-35422","alt_names":[],"object_type":"PAYLOAD","status":"ACTIVE","operator":null,"country":"US","launch_date":"2025-10-19","launch_site_code":"AFETR","launch_vehicle":null,"mission":null,"orbit_class":"UNKNOWN","rcs_meters":null,"size_class":null,"mass_kg":null,"dimensions":null,"purposes":["comms"],"wikipedia_slug":null,"has_3d_model":false,"image_url":null,"decayed_at":null,"tle_current":{"epoch":"2026-09-20T20:35:28.097376Z","epoch_age_seconds":72133,"freshness":"FRESH","line1":"1 66068U 25235L   26263.85796409  .00013666  00000+0  41488-3 0  9999","line2":"2 66068  53.1581  55.8222 0000891 100.0490 260.0613 15.34399539 52812","mean_motion":15.34399539,"eccentricity":8.91e-5,"inclination_deg":53.1581,"raan_deg":55.8222,"arg_perigee_deg":100.049,"mean_anomaly_deg":260.0613,"bstar":0.00041488,"rev_number":5281,"period_min":93.847786277261,"perigee_km":462.09509140911,"apogee_km":463.31412938409,"semimajor_km":6840.8416103966,"source":"CELESTRAK","updated_at":"2026-09-21T09:00:35.795813Z"}}}